Theta_e
304 304 304 304 304 304 304 304 304 305 306 306 306 307 310 314 316 315 314 314 314 317 325 328 326 324 323 320 320 320 320 319 319 318 318 319 319 321 321 321 322 322 322 322 323 323 325 327 327 326 324 324 325 325 326 325 324 325 324 323 331 333 326 317 316 325 330 327 328 327 327 328 325 327 329 326 330 327 328 336 336 324 317 322 331 326 333
304 304 304 304 304 304 304 304 304 305 306 306 307 307 309 310 311 314 316 317 316 317 325 330 329 326 323 321 321 320 320 319 319 320 318 318 320 320 321 321 322 323 323 323 326 325 325 328 332 332 328 325 325 325 324 324 324 324 325 326 326 325 324 318 314 317 318 320 322 321 324 327 325 332 330 326 331 330 334 343 334 323 321 324 328 323 331
304 304 304 304 304 304 303 303 304 305 305 306 306 307 309 311 314 316 317 318 317 317 320 324 327 328 325 323 323 321 320 320 319 320 319 319 320 319 320 322 321 321 323 322 325 328 326 328 330 331 332 331 328 325 325 326 323 323 333 336 324 326 335 324 314 315 316 317 319 320 323 327 326 331 328 327 331 324 326 331 319 317 326 329 326 325 334
304 304 304 304 304 304 303 304 304 304 305 306 306 307 309 315 322 322 316 315 318 318 319 319 320 322 323 323 324 322 322 323 320 321 320 319 320 320 320 322 323 323 323 322 326 329 327 328 329 332 335 337 336 333 334 332 325 331 350 345 326 332 342 329 318 319 320 324 337 345 334 323 320 322 325 327 329 326 332 330 320 325 332 329 332 333 331
304 304 304 304 304 304 303 304 304 304 304 306 307 308 310 316 323 319 313 314 317 318 318 315 313 316 319 323 326 324 325 324 322 321 321 320 321 319 320 323 325 326 326 326 328 330 331 331 332 336 340 344 340 336 339 336 336 351 359 342 330 331 330 329 329 325 322 333 356 359 335 320 319 321 322 326 329 329 329 323 327 340 330 321 338 345 328
304 304 304 304 304 303 304 304 304 304 304 305 309 312 314 320 321 313 311 313 315 315 315 313 312 315 319 323 324 325 327 327 325 323 321 321 322 320 321 323 325 327 327 328 330 333 333 336 339 341 342 344 342 340 341 339 340 348 344 336 341 332 321 326 330 325 326 330 339 342 332 324 324 324 323 325 326 326 326 327 341 345 326 320 339 346 332
304 304 304 304 304 303 304 303 304 304 304 305 311 315 317 318 317 313 312 312 313 313 313 313 315 317 320 325 326 325 326 327 326 324 322 323 323 323 327 326 325 329 328 329 335 337 333 335 341 342 340 342 343 342 343 340 336 336 333 337 344 331 326 336 330 322 329 330 330 334 330 326 325 325 327 328 327 327 325 332 344 341 332 337 344 342 339
305 304 304 304 303 303 304 303 303 304 305 305 308 311 312 313 313 314 314 314 313 313 314 316 318 319 322 327 327 322 321 323 328 329 327 329 330 328 330 330 328 330 329 329 337 340 336 337 340 340 340 342 342 341 341 338 335 334 332 337 340 331 335 349 333 320 323 328 331 332 327 326 323 324 332 331 327 332 327 328 339 338 337 345 344 339 342
305 305 305 304 304 303 304 304 303 304 305 306 306 307 308 309 310 311 313 315 315 315 316 317 319 323 324 325 324 319 318 323 329 331 330 331 332 330 330 330 330 331 334 337 338 337 334 336 337 334 336 339 337 337 339 335 336 338 335 335 339 336 338 344 331 318 318 325 327 326 326 327 320 320 330 329 327 331 329 331 336 334 340 348 340 334 340
305 305 304 304 304 304 304 304 303 304 305 306 305 306 306 307 308 309 311 315 316 315 315 315 319 327 324 321 321 317 316 323 329 333 335 332 329 331 330 330 332 336 338 335 333 330 329 332 334 333 334 336 334 334 336 334 333 337 337 338 341 341 335 332 326 317 318 326 328 331 330 321 316 324 332 330 333 337 334 338 341 343 355 356 338 334 343
305 305 304 304 304 304 305 304 303 303 304 306 305 306 306 306 308 308 310 315 316 314 314 314 317 320 318 317 319 317 317 323 326 329 332 330 329 331 330 329 336 343 338 330 327 328 328 332 332 332 332 334 334 334 332 333 333 334 336 337 345 356 347 336 333 323 319 327 332 331 325 316 321 341 342 330 336 340 336 340 342 345 360 363 349 349 356
304 305 304 304 304 304 305 305 303 302 303 304 305 306 306 306 307 308 311 314 315 313 313 314 314 314 315 316 318 318 319 320 320 322 324 327 329 328 327 329 335 337 332 327 326 328 331 334 335 337 338 335 335 333 331 334 336 334 334 331 341 358 351 343 348 336 325 333 332 318 316 326 342 353 344 333 337 342 342 345 343 343 348 353 352 352 353
304 305 304 304 304 304 305 305 304 302 302 303 304 305 306 306 307 309 310 313 315 314 313 313 312 312 315 316 315 317 318 318 319 320 320 323 325 323 323 326 327 327 326 324 327 332 338 344 346 346 344 339 339 337 333 334 334 334 334 332 340 352 349 345 349 336 327 332 329 319 324 344 356 350 340 339 343 347 345 339 340 347 347 346 346 344 343
303 304 304 304 304 304 305 305 304 303 302 303 303 304 305 306 307 308 310 313 314 313 312 313 314 312 313 315 314 315 316 317 319 320 320 322 323 322 323 323 321 321 321 324 334 343 344 347 348 344 346 349 346 341 339 336 334 334 334 335 344 356 356 350 339 332 331 331 329 333 336 336 340 343 341 340 340 346 346 335 336 349 350 344 344 344 344
303 304 304 304 305 305 305 305 304 303 303 302 303 304 304 305 306 307 309 312 313 313 314 314 314 312 312 314 313 313 316 317 317 319 322 322 321 321 321 319 318 319 320 325 339 347 342 337 333 329 335 343 336 332 337 335 334 336 332 334 343 345 351 352 337 331 340 336 331 335 330 324 335 345 343 340 338 346 356 348 340 343 344 343 345 345 347
303 303 304 304 305 305 305 305 305 304 303 302 302 303 303 305 306 307 309 311 313 316 316 313 311 311 311 313 312 312 315 317 317 324 331 326 322 322 320 316 316 321 326 331 337 342 341 338 332 327 332 337 330 328 332 330 332 340 335 332 338 340 351 364 346 334 343 341 333 330 323 326 342 349 343 340 338 344 353 345 338 342 344 346 347 343 343
303 303 303 304 304 304 305 305 305 305 303 302 302 303 303 304 306 307 309 311 312 315 314 310 310 312 312 313 312 311 313 315 319 332 340 331 322 319 317 316 318 322 331 338 339 336 336 338 334 330 334 340 333 330 335 331 328 336 340 343 349 350 355 354 337 333 343 342 333 329 328 335 344 344 340 338 340 353 345 327 330 348 347 345 346 343 347
304 304 304 304 303 304 305 305 305 305 303 302 302 303 303 304 306 307 308 310 312 313 312 310 311 312 312 312 312 311 311 313 318 329 336 333 326 321 315 316 320 323 330 340 341 335 332 336 336 330 335 344 334 331 341 341 332 335 344 348 352 356 356 349 337 339 346 341 331 328 333 343 345 339 338 338 346 359 344 330 341 354 345 342 345 341 345
303 304 304 304 304 304 304 304 304 305 303 302 302 304 303 303 305 307 307 309 312 312 312 311 311 311 311 310 311 311 309 312 316 321 324 327 329 324 320 320 321 320 327 337 341 338 334 338 340 333 333 340 337 333 340 343 340 343 345 341 343 349 354 354 349 345 346 347 343 334 333 342 342 337 342 345 343 343 339 342 353 350 341 344 345 340 343
303 304 305 305 304 304 304 304 304 305 304 302 303 304 303 303 306 307 307 308 310 311 311 310 310 310 310 310 310 311 310 312 316 318 316 318 322 325 332 337 328 322 328 336 340 341 337 337 341 334 329 339 347 343 340 341 342 346 346 344 348 350 347 347 349 348 349 354 351 338 334 341 340 339 352 356 346 345 348 349 348 344 343 346 345 345 347
303 304 304 305 304 304 304 304 304 304 304 302 303 303 303 304 304 305 306 308 309 311 313 311 310 310 311 310 310 310 310 311 313 314 315 317 318 321 329 335 328 324 330 335 335 338 336 335 339 336 336 350 356 345 343 346 345 344 347 349 350 349 347 347 352 354 354 351 346 338 337 339 337 339 349 348 345 352 357 349 342 343 342 343 345 347 345
303 304 304 304 304 304 304 304 304 304 304 303 303 303 303 303 302 303 306 307 308 311 312 311 310 310 310 310 310 310 311 312 312 312 313 316 321 319 319 324 324 324 328 332 332 334 333 332 336 336 339 348 348 340 346 352 348 345 347 345 343 347 352 351 346 345 349 348 346 344 342 338 334 337 340 339 338 343 345 342 343 345 342 341 344 346 344
303 303 304 305 304 304 304 304 304 304 304 303 303 303 303 303 302 303 306 308 309 311 311 310 310 312 311 311 312 312 313 313 313 313 312 315 321 323 324 325 323 322 327 329 328 330 331 330 333 337 340 342 340 341 347 348 346 348 348 344 343 345 350 352 346 342 342 342 341 343 341 338 336 333 332 333 333 333 334 336 339 341 340 340 342 344 347
303 303 304 304 304 304 304 304 304 304 304 303 303 303 303 302 303 304 306 308 310 311 311 310 311 313 313 313 313 314 315 315 314 314 312 312 317 323 325 324 320 321 326 325 322 324 328 328 330 334 338 340 341 345 347 341 341 350 352 349 345 340 343 353 355 347 342 340 343 344 341 338 339 337 333 333 333 332 332 333 334 335 336 337 340 344 346
304 303 304 304 304 304 304 304 304 304 304 303 303 303 303 302 303 304 306 308 309 311 313 312 311 311 312 313 313 313 315 315 315 314 312 312 314 317 319 319 316 318 323 322 320 322 326 329 332 333 335 338 339 343 347 343 343 350 354 350 347 343 344 352 355 352 349 348 349 350 343 337 338 340 339 336 334 333 333 333 335 336 333 331 335 338 343
303 303 304 304 304 304 304 304 304 303 303 303 303 303 303 302 303 304 305 307 309 310 312 312 312 310 311 311 312 312 313 313 312 311 311 311 312 312 313 314 313 317 322 322 321 323 326 329 331 333 337 341 337 336 345 347 346 350 350 344 346 350 349 348 350 351 350 348 349 349 344 338 337 340 343 341 337 336 336 334 334 335 333 331 332 333 338
304 303 304 304 304 304 304 304 303 303 303 303 303 302 302 302 303 304 306 307 309 311 312 312 312 310 309 309 310 312 314 313 311 309 309 310 312 311 310 313 316 319 321 322 323 326 329 329 331 334 338 338 335 336 343 347 347 350 347 339 343 350 348 344 346 349 350 351 349 347 344 343 341 341 345 345 340 338 338 336 335 337 338 336 334 332 333
304 304 304 304 304 304 304 304 303 303 303 303 302 302 303 304 304 305 306 307 309 310 311 311 309 308 309 311 311 312 314 314 310 308 308 309 311 311 310 313 316 317 317 318 321 326 327 327 330 332 330 331 335 338 341 345 347 347 340 335 340 348 348 346 347 348 348 350 348 345 344 343 340 340 342 341 339 336 333 333 334 336 336 335 334 333 333
304 304 304 304 304 304 304 304 303 303 303 302 302 303 306 308 307 307 308 308 307 309 310 311 311 311 312 313 312 313 315 314 310 308 309 309 310 311 312 314 315 316 316 317 318 323 328 327 328 328 325 327 335 336 337 343 345 341 334 327 327 334 339 339 338 337 336 340 345 346 344 339 336 338 338 337 336 334 330 331 333 332 333 335 336 335 333
304 304 304 304 304 304 304 303 303 303 302 302 303 305 309 311 309 308 308 307 306 308 310 312 312 312 311 312 312 313 313 311 309 309 310 309 311 312 313 315 317 319 318 317 318 323 326 324 325 326 325 327 332 329 328 336 339 336 332 326 322 325 329 330 329 329 328 330 333 335 335 334 332 332 331 332 335 336 333 332 332 333 336 336 333 331 328
304 303 303 304 304 304 304 303 303 303 302 302 303 306 310 312 310 308 307 306 306 307 309 311 311 311 312 313 314 314 314 311 309 310 310 310 311 312 311 314 319 321 321 321 322 324 325 323 324 324 324 329 333 326 324 334 338 332 328 324 321 322 324 325 325 326 326 326 325 325 326 329 328 326 326 328 330 331 330 330 330 330 334 332 326 325 324
303 303 303 303 303 304 303 303 303 303 302 302 303 304 307 309 309 307 306 306 305 307 310 312 312 313 315 316 315 315 315 312 310 312 313 313 313 313 313 314 317 319 321 324 324 326 328 328 326 322 323 329 331 325 327 337 338 330 326 325 322 322 323 323 323 324 324 324 323 324 326 327 327 327 326 325 326 326 327 327 324 323 325 324 321 321 322
303 303 303 303 304 303 303 303 303 302 301 301 301 301 303 305 307 306 305 305 305 307 309 311 311 314 316 317 317 316 314 312 312 313 314 317 316 315 315 316 315 316 317 319 322 327 329 326 323 321 325 330 328 324 326 330 327 325 324 323 322 323 324 323 322 322 323 323 323 324 326 326 325 325 325 324 325 325 324 324 322 321 321 323 323 322 322
303 303 303 303 303 303 303 303 302 301 302 302 303 303 304 306 307 307 305 305 306 307 308 309 312 315 316 315 320 320 314 312 314 314 316 319 318 316 318 318 315 315 316 316 319 325 327 325 323 323 324 328 329 327 325 323 323 324 325 324 324 325 325 324 323 322 321 322 322 323 323 323 322 323 324 325 324 322 321 321 323 322 323 324 324 323 324
303 303 303 303 303 303 302 302 301 302 303 304 304 306 307 307 307 307 306 306 308 310 311 310 312 315 317 319 324 323 312 311 316 317 317 319 318 317 320 320 318 317 316 316 318 321 324 328 329 325 323 326 328 326 324 324 325 325 325 325 327 326 325 324 324 322 321 321 321 321 321 321 321 323 325 324 324 322 322 323 324 323 323 324 323 324 326
302 303 302 302 302 302 303 303 303 304 305 306 306 307 308 307 306 306 305 305 307 310 312 312 313 315 318 321 322 317 310 314 320 318 316 318 320 318 318 321 323 320 316 316 319 320 322 329 330 324 322 326 327 325 325 325 325 324 324 324 325 325 325 325 323 321 322 321 321 322 322 322 323 324 325 324 324 323 322 323 323 323 323 323 324 326 327
302 302 302 302 303 304 304 305 305 305 306 307 307 307 307 307 307 306 306 307 308 308 310 311 313 315 317 318 319 317 313 316 321 318 314 319 323 318 316 322 328 324 318 320 324 323 324 332 332 325 324 327 326 325 326 325 323 324 324 323 323 323 324 325 323 323 324 324 323 324 324 323 324 326 325 325 325 325 324 325 324 324 324 324 325 327 327
302 302 302 303 304 305 306 307 306 306 307 307 307 308 308 308 309 310 309 309 310 310 309 310 312 314 314 315 318 319 314 314 321 322 317 318 321 320 320 324 327 324 323 326 327 324 327 332 330 325 325 326 324 323 324 323 322 323 323 322 323 323 322 323 322 323 325 325 324 325 325 324 325 326 326 326 327 326 326 327 326 325 326 326 327 326 325
302 303 304 304 305 306 307 307 306 306 307 306 307 309 310 310 312 313 312 311 312 312 311 310 312 313 314 315 318 318 315 316 323 324 321 321 323 325 325 323 321 322 326 326 322 323 327 327 325 325 326 326 324 324 323 322 321 322 322 322 323 323 323 324 323 323 324 324 323 323 324 324 324 325 326 327 327 326 327 328 328 326 325 326 326 326 325
303 304 304 306 306 306 305 306 305 306 307 308 308 309 309 311 314 315 313 313 314 314 313 312 312 312 312 313 315 319 319 318 320 322 323 324 324 323 324 323 323 325 326 324 324 328 329 326 326 328 328 326 325 326 324 323 323 323 323 324 323 323 324 325 324 323 325 326 326 326 326 325 325 326 326 325 325 325 326 328 327 324 323 325 326 325 325
304 305 305 306 306 305 305 306 307 307 308 309 310 310 310 312 314 313 312 314 316 314 311 312 313 314 312 311 314 320 322 319 318 321 324 325 324 323 323 324 325 326 325 324 326 330 328 325 327 329 327 325 326 325 324 324 325 324 323 324 325 324 325 326 324 323 324 327 329 329 326 324 325 326 325 325 327 327 328 328 327 324 323 325 326 325 324
304 304 305 305 305 305 306 308 309 309 310 310 311 311 311 311 312 313 313 314 314 312 311 312 315 318 317 314 314 319 319 317 319 323 324 323 324 324 325 326 325 324 323 323 325 328 328 327 328 327 325 324 325 324 324 325 325 323 324 325 325 326 326 327 327 324 323 325 328 328 324 322 322 323 322 324 326 327 326 326 325 324 324 325 325 325 326
304 304 305 305 306 307 308 310 310 310 311 311 310 310 310 311 313 313 312 313 313 313 313 313 316 319 318 315 316 319 317 316 320 325 323 320 319 320 324 327 324 319 319 323 325 326 327 328 328 325 324 324 324 324 324 325 324 324 324 324 323 322 322 323 324 323 322 322 324 324 322 321 322 322 322 323 324 324 324 324 324 325 326 326 326 327 328
305 304 305 307 309 309 310 311 310 309 310 310 310 310 311 313 314 313 312 313 317 318 315 315 317 319 318 317 320 321 318 318 322 324 322 321 321 321 322 324 322 319 319 324 326 326 327 327 325 324 323 323 323 323 324 324 324 325 325 323 322 321 321 321 322 323 323 323 322 322 322 322 322 322 323 323 323 324 324 324 325 326 326 326 326 326 326
306 305 306 308 309 308 308 309 309 309 310 310 309 310 311 312 313 313 313 314 317 318 317 318 322 323 321 320 320 319 319 323 325 322 320 324 326 323 320 322 323 322 321 323 324 326 326 325 323 323 324 323 324 324 324 324 324 324 323 323 322 322 322 323 323 324 324 324 322 322 323 323 322 322 323 323 323 324 324 324 325 326 326 325 325 325 324
306 306 306 307 307 307 307 309 309 310 312 312 311 311 312 312 314 315 315 315 316 317 317 320 324 324 321 321 322 324 325 325 323 320 320 324 324 320 319 323 325 322 322 324 326 327 326 324 323 324 324 324 325 325 325 325 325 325 324 324 324 324 323 323 323 323 323 322 321 322 322 323 322 322 323 323 323 324 325 325 325 325 325 324 324 323 324
307 306 305 306 308 308 307 309 310 310 311 311 311 311 311 312 314 315 315 315 316 317 319 322 326 325 322 320 321 323 322 321 321 321 322 322 320 318 320 323 322 320 322 326 326 325 325 324 324 324 324 325 326 327 326 326 326 325 325 325 325 324 323 323 323 323 322 322 321 322 322 323 323 322 322 323 324 324 324 325 324 323 323 323 322 322 322
307 306 306 307 308 308 308 309 310 310 309 309 310 310 311 314 315 315 315 316 316 317 319 323 326 326 324 322 322 321 321 321 322 322 321 321 322 321 320 321 321 321 324 326 326 325 325 325 324 324 325 325 326 327 327 326 325 325 325 325 325 325 325 325 324 323 322 322 322 322 322 322 323 323 322 323 323 323 323 324 324 323 322 322 322 322 322
306 306 306 306 307 307 308 309 310 310 309 309 309 311 312 314 315 315 316 318 318 318 320 323 323 322 320 319 320 322 322 320 319 319 320 322 322 319 318 320 323 324 324 324 324 324 324 324 325 326 326 326 326 327 326 326 325 325 326 325 323 323 324 324 323 322 321 321 321 321 322 322 323 322 322 322 322 322 323 324 323 323 322 322 322 322 323
305 306 306 306 306 308 310 310 310 310 311 311 312 312 313 316 317 316 316 318 320 322 325 325 323 321 319 318 317 317 318 319 319 320 321 321 318 318 320 323 324 324 323 323 324 325 325 325 326 327 327 326 327 327 326 326 327 327 325 323 321 320 321 322 321 321 321 321 321 322 322 322 322 322 322 322 322 322 323 323 323 323 323 322 322 323 323
305 306 307 307 308 309 311 311 311 311 312 313 313 313 314 317 319 317 316 318 320 322 323 321 319 318 320 318 315 313 315 318 319 320 319 317 318 321 324 324 322 321 322 323 324 325 325 325 326 327 326 326 327 327 326 327 327 324 321 320 320 320 320 321 321 321 321 321 321 321 322 322 322 322 322 322 322 323 323 323 323 323 323 323 323 323 323
305 305 307 310 312 313 312 312 313 312 312 313 315 314 314 317 319 317 316 318 320 319 318 318 318 318 317 315 314 314 316 318 319 319 319 319 320 322 323 323 321 321 323 323 323 325 326 326 326 326 326 325 326 326 326 328 328 324 319 318 319 320 320 320 321 321 321 321 321 321 321 322 322 322 322 321 322 324 325 323 322 323 323 322 322 323 322
Wind_Speed
23 24 26 27 30 32 33 35 35 37 39 36 29 18 5 0 5 14 13 7 4 2 1 3 2 3 4 4 7 7 7 9 8 7 8 7 7 7 8 10 11 10 12 12 10 8 7 7 6 5 7 12 13 15 20 19 14 11 9 10 8 6 4 5 4 5 7 9 10 11 11 9 6 5 5 6 5 5 6 5 4 3 3 1 4 1 5
23 24 26 27 29 31 32 34 34 34 35 33 25 11 2 3 5 10 13 8 3 4 2 3 3 4 5 7 9 9 9 10 9 10 9 7 6 7 8 10 10 10 11 10 8 7 7 6 6 4 3 7 11 16 22 21 14 9 9 8 7 5 5 5 4 4 6 6 6 7 8 6 4 4 6 7 7 7 4 2 3 3 4 5 6 2 6
23 24 26 27 28 31 32 33 33 33 33 31 20 5 2 5 3 4 9 7 3 4 2 3 3 4 5 8 10 9 8 9 11 12 11 10 9 8 9 10 11 11 12 13 11 8 6 5 5 5 3 2 6 8 13 17 15 13 14 13 9 6 5 6 6 7 6 5 6 7 6 4 3 4 8 10 10 9 5 3 4 4 3 5 7 5 6
22 23 25 26 27 30 32 32 33 33 33 31 18 5 2 3 2 3 5 4 1 1 2 3 2 3 4 6 7 8 8 7 9 11 12 12 12 11 11 10 10 11 12 13 10 4 5 6 6 5 2 1 2 3 3 6 9 14 18 16 8 4 5 7 9 10 8 8 8 6 6 7 6 6 8 9 10 9 7 5 4 6 5 4 5 7 6
21 22 23 25 26 29 31 32 33 33 33 29 14 4 2 1 2 3 4 4 4 4 3 6 6 5 5 4 5 9 10 9 8 8 8 10 11 12 11 8 5 7 10 10 5 2 6 7 6 6 3 2 3 2 2 3 4 7 11 14 7 4 5 8 13 14 13 13 10 7 8 12 11 9 9 10 9 9 9 6 5 6 7 4 8 8 12
20 21 22 23 25 28 30 32 32 33 33 25 8 2 2 1 2 3 4 3 3 4 5 7 8 9 7 3 5 10 12 11 9 7 7 10 10 8 7 8 8 10 11 10 5 3 5 4 4 5 4 4 5 5 2 2 6 9 2 7 5 5 6 8 12 14 16 16 12 8 8 11 14 13 12 11 10 9 9 8 8 9 7 7 9 13 15
19 21 21 23 24 26 29 31 30 33 33 19 4 1 2 2 2 3 4 3 4 6 10 10 9 10 8 4 6 9 12 12 10 6 5 8 9 5 3 3 3 4 8 9 4 1 2 2 2 3 4 5 4 4 4 2 4 7 4 2 2 4 6 9 12 12 14 15 13 9 8 8 11 12 9 7 7 8 9 8 9 12 9 8 14 17 16
18 20 21 21 22 23 27 29 28 31 32 19 5 3 4 2 2 4 4 4 5 6 9 7 7 7 6 4 5 8 11 11 8 5 4 6 7 4 3 4 4 5 8 6 2 2 2 3 3 1 2 3 3 2 3 4 5 5 2 2 2 3 5 8 11 9 11 13 12 9 8 7 8 7 5 5 4 4 4 4 6 7 5 6 14 16 11
17 18 19 20 21 22 24 26 26 27 28 19 6 4 7 5 6 6 4 4 4 4 5 5 5 5 3 3 5 9 12 10 7 4 3 2 3 6 8 7 5 5 6 4 1 2 4 4 5 4 2 2 3 2 3 3 5 5 2 2 3 2 4 4 7 6 7 8 7 7 7 7 6 5 4 5 4 1 2 2 4 5 3 4 9 12 9
17 17 17 19 20 20 21 23 24 23 23 18 6 5 10 10 9 6 3 3 4 4 4 5 4 3 3 6 9 12 14 12 6 3 3 2 4 6 8 6 4 3 5 6 5 7 6 7 8 6 5 6 4 4 5 4 3 3 2 2 3 1 2 3 5 6 5 5 8 7 5 5 2 5 4 3 6 6 3 3 2 2 5 8 7 9 7
17 16 17 18 18 17 18 20 21 20 20 18 9 7 11 10 6 5 3 3 3 3 4 4 3 4 8 12 13 14 14 11 7 4 4 6 7 9 9 5 3 2 4 8 9 9 7 8 7 5 4 4 4 4 5 4 3 4 2 1 4 2 3 3 3 5 5 5 5 6 4 4 3 6 2 4 8 10 8 4 2 1 2 6 6 6 5
17 16 16 17 17 16 16 18 19 18 16 17 14 11 12 11 7 4 2 3 4 3 3 4 5 8 12 14 13 13 11 10 9 6 4 6 7 10 11 8 5 2 7 12 11 8 5 4 4 4 3 4 5 5 5 5 4 5 3 2 3 4 4 1 0 4 4 2 5 5 4 4 5 6 2 7 10 12 10 5 4 5 5 7 8 8 10
17 16 16 16 16 15 14 16 18 17 15 17 17 15 14 13 7 3 2 4 4 2 3 7 9 11 13 14 14 13 11 11 9 6 7 7 8 11 10 8 6 6 9 11 10 5 3 3 3 4 5 5 6 6 5 5 5 6 6 2 2 1 3 2 2 2 3 2 5 4 6 5 5 3 2 6 7 8 9 7 8 9 5 6 8 7 9
17 16 16 16 15 14 14 15 16 17 16 16 18 18 17 12 7 3 2 3 3 3 4 6 8 11 13 14 14 12 11 12 10 8 6 6 8 10 10 8 8 10 8 6 5 3 2 2 3 3 4 5 5 5 6 6 4 5 8 5 4 5 3 3 3 2 2 4 3 1 1 4 6 5 3 1 2 5 7 6 5 8 8 4 7 9 8
16 16 15 14 14 13 13 14 16 16 16 17 19 20 18 13 9 6 3 2 4 5 3 3 4 10 13 13 12 10 8 8 9 7 4 4 7 10 11 11 13 13 8 3 2 2 2 1 1 1 3 2 1 3 5 4 2 4 6 5 0 3 3 4 3 1 1 5 4 3 4 3 3 6 6 4 3 9 10 6 3 7 10 6 4 11 10
16 16 16 15 14 13 12 14 15 16 16 17 19 21 19 12 7 7 6 3 3 4 3 3 6 9 9 9 10 9 6 5 6 6 4 6 9 11 13 14 14 13 9 4 2 3 3 2 2 1 2 2 1 2 3 3 3 5 6 6 7 6 3 4 5 2 2 5 4 2 3 2 4 6 7 7 1 5 9 7 3 6 9 8 1 10 11
16 16 16 16 15 14 12 13 14 15 16 16 18 22 20 12 8 8 6 2 2 5 7 8 8 6 4 5 7 6 4 4 5 3 3 5 7 10 13 14 12 12 10 6 2 3 3 1 1 0 2 2 2 2 3 3 3 5 7 7 8 6 4 3 5 3 2 4 3 1 2 1 3 6 8 8 3 5 8 4 3 7 8 7 2 7 7
17 16 16 16 15 13 12 13 14 14 15 16 17 20 19 12 9 9 5 2 3 4 5 6 5 4 4 4 6 5 4 5 4 2 2 3 2 6 9 9 8 10 10 5 3 4 2 1 1 1 2 4 1 3 2 1 1 3 3 3 3 3 3 3 4 3 3 4 3 1 1 1 3 7 9 9 4 8 7 3 6 4 5 6 6 8 6
17 16 15 14 14 13 12 12 13 13 14 16 16 18 18 12 9 9 5 2 2 4 7 8 8 7 7 6 5 4 4 5 4 1 2 2 2 5 7 5 3 6 7 4 3 3 3 3 2 1 2 4 2 1 1 1 1 2 1 2 2 1 2 3 2 2 2 3 3 2 0 2 6 9 9 6 4 5 3 4 5 0 4 6 7 8 8
16 14 14 14 14 13 12 11 11 12 14 14 14 18 19 12 7 7 7 3 2 6 11 12 10 10 8 6 5 5 5 5 3 2 1 2 3 3 4 3 3 5 5 4 3 3 2 3 4 2 1 3 2 1 1 2 2 1 1 2 1 1 1 2 1 2 2 3 3 2 2 4 10 11 6 5 4 3 5 3 2 2 5 7 7 7 7
16 15 14 14 14 13 12 11 11 11 13 13 14 16 18 13 9 10 11 8 4 3 7 9 9 10 12 13 13 12 8 7 6 2 0 3 3 2 2 0 2 3 3 2 2 2 2 2 3 3 2 2 1 1 2 2 1 0 2 3 1 1 1 0 1 1 2 3 2 1 3 6 10 8 5 5 4 0 2 3 3 2 4 5 6 5 3
15 14 13 13 13 13 12 10 10 11 12 13 13 13 16 17 16 15 16 12 8 8 12 18 21 24 27 29 27 24 21 19 17 12 4 1 2 0 2 2 2 2 2 1 0 1 2 2 2 3 2 2 1 1 2 2 1 2 1 3 1 2 4 4 2 1 3 4 3 4 3 4 8 10 8 9 10 8 7 7 5 4 4 3 5 5 4
14 13 12 12 12 12 11 10 9 10 11 13 13 12 16 21 20 18 17 12 8 10 17 22 22 22 23 24 24 24 25 25 25 20 10 2 1 2 1 2 2 3 1 1 1 1 2 1 2 2 3 2 1 1 1 1 1 1 1 2 1 4 4 4 4 2 4 5 2 1 2 5 9 10 10 12 13 11 10 10 8 7 7 5 5 6 6
13 12 12 12 11 11 11 9 9 10 11 12 12 13 17 20 18 16 14 7 3 5 9 10 8 7 9 14 21 18 16 21 22 19 12 6 3 1 1 2 1 1 2 2 2 1 1 2 2 2 3 3 2 1 1 2 1 2 2 2 1 2 1 3 4 4 4 3 2 2 4 4 5 8 9 11 12 10 10 10 8 8 10 9 6 5 6
12 13 12 12 11 11 10 10 9 10 11 11 12 15 17 17 13 10 9 5 2 3 4 4 6 9 10 17 20 12 8 13 15 13 11 8 6 4 3 4 3 2 3 3 1 1 0 2 1 1 3 3 4 3 0 0 1 2 2 0 1 1 1 3 4 3 4 3 4 1 4 4 4 6 6 7 9 10 9 9 8 9 10 10 8 4 5
12 12 11 11 11 10 10 10 9 9 11 12 14 16 17 18 16 12 9 7 4 3 3 3 7 11 16 19 19 15 10 10 11 10 10 9 10 10 7 4 4 4 2 2 2 2 2 2 1 1 2 2 3 3 2 1 1 1 2 2 3 1 2 2 4 4 4 2 3 2 4 5 4 4 4 5 7 9 9 10 10 11 12 13 12 9 7
11 11 10 11 11 10 10 10 10 10 11 13 16 17 18 20 18 12 9 7 3 1 2 3 5 12 17 18 21 21 14 8 9 9 8 9 11 13 9 4 3 4 3 2 2 1 1 1 1 2 3 2 2 2 1 1 3 2 2 1 0 4 2 1 5 5 2 2 3 3 4 2 2 1 3 4 6 9 9 8 9 9 6 8 11 10 9
11 10 10 10 10 10 10 9 9 10 11 14 17 18 18 17 13 8 8 9 6 3 2 3 6 11 14 14 17 19 14 10 10 9 9 9 10 11 9 5 3 1 2 2 2 2 1 1 2 2 2 1 1 2 1 2 3 3 3 4 2 3 4 3 5 5 2 3 4 4 4 3 2 1 3 3 3 7 8 8 7 5 3 4 4 7 9
9 9 9 9 9 9 9 9 9 9 11 14 16 15 12 6 2 2 2 5 5 4 3 4 5 6 7 11 16 18 13 10 11 11 9 9 9 7 6 5 4 3 2 1 1 1 1 2 2 3 3 0 1 1 1 2 2 2 5 6 3 4 4 3 6 6 4 4 5 4 5 5 3 3 4 3 4 6 7 6 5 2 2 3 5 7 7
8 9 9 9 9 9 9 9 8 8 11 13 12 8 4 2 4 6 3 8 10 3 1 2 3 3 5 8 11 12 8 9 13 11 9 7 5 4 4 5 4 3 1 0 0 1 2 3 2 3 3 0 2 1 1 2 3 1 5 5 6 9 7 6 5 6 6 6 5 7 8 7 4 5 5 5 5 5 6 5 4 4 5 6 6 6 6
8 9 9 9 9 9 9 8 7 9 10 9 5 2 1 1 3 6 0 11 14 6 0 2 3 4 5 5 6 8 8 10 11 7 6 6 6 6 5 4 3 2 2 1 1 2 2 2 2 3 3 3 1 2 1 2 3 2 2 4 7 8 7 7 7 7 7 8 9 10 9 6 5 6 7 8 7 6 6 5 4 6 7 7 6 6 6
8 8 8 9 9 9 8 8 8 9 10 8 6 7 8 7 6 5 6 13 13 4 0 2 3 3 3 3 5 8 7 11 10 4 4 5 5 5 5 3 2 2 3 2 1 1 2 3 2 3 3 2 2 3 3 3 3 3 2 3 6 8 8 9 10 10 9 7 9 11 10 9 8 7 6 7 7 8 8 7 7 9 9 8 8 8 9
8 8 8 9 9 9 9 9 8 10 11 12 13 16 17 15 12 9 10 13 10 3 2 2 2 3 3 3 5 7 4 7 6 3 3 4 3 2 3 3 2 1 2 2 2 1 2 2 1 3 3 1 3 3 2 1 2 3 3 5 7 8 10 11 10 11 11 9 10 10 7 5 5 5 6 7 8 8 7 7 8 9 10 8 9 10 10
8 8 8 9 9 9 10 9 9 10 9 9 12 14 12 10 7 5 7 7 5 3 3 1 1 3 4 3 4 4 1 2 3 2 2 3 2 3 2 1 1 0 1 2 2 1 2 1 1 1 2 2 3 3 1 2 5 7 7 7 7 8 11 11 10 10 9 9 9 8 6 5 6 8 8 9 9 9 8 8 8 9 8 7 7 7 7
6 7 8 9 9 10 10 10 9 8 6 6 9 8 5 4 4 3 5 5 2 0 2 2 2 3 3 3 3 4 3 2 2 3 2 2 2 3 2 1 1 1 2 2 1 1 2 1 2 1 2 2 3 2 1 4 8 9 9 8 7 8 9 9 7 7 7 8 8 8 8 10 10 9 8 8 8 9 9 8 8 8 7 7 7 7 7
6 7 8 9 9 9 9 8 6 5 4 5 6 4 4 7 7 4 4 5 4 2 2 1 1 2 2 2 3 3 4 3 2 3 2 2 2 2 1 2 1 2 2 1 1 1 2 1 2 2 2 2 3 3 3 7 10 11 11 9 7 7 7 6 6 7 8 10 10 9 9 10 9 7 6 7 7 7 7 8 8 8 8 7 7 6 5
6 6 7 7 7 6 5 4 4 4 6 9 10 10 10 10 6 2 3 4 5 5 2 1 2 3 2 2 3 3 3 3 2 1 1 1 2 2 2 2 1 1 0 1 1 2 2 1 3 4 3 3 4 4 5 8 10 9 9 8 6 7 7 5 5 8 9 11 11 9 8 8 7 6 6 7 7 7 7 7 6 6 6 7 7 6 5
5 5 6 5 4 2 1 2 3 8 12 12 10 8 7 3 1 2 2 2 3 4 3 1 3 3 2 2 4 3 2 2 2 2 2 0 0 0 1 1 1 1 0 1 2 1 1 3 5 6 5 5 6 6 7 8 8 7 7 6 6 6 6 5 7 9 9 8 8 8 7 7 7 6 6 6 6 6 5 5 5 5 5 5 5 6 7
3 4 4 2 1 1 3 7 11 14 11 6 3 2 1 1 1 1 2 2 2 2 2 2 3 3 3 4 4 3 1 1 2 3 2 1 1 1 1 0 1 0 1 0 2 1 3 4 4 5 5 5 6 7 7 7 7 7 7 6 6 7 7 7 8 9 7 5 4 4 5 6 6 5 4 5 5 5 5 5 5 5 5 6 6 7 7
2 3 3 1 2 5 11 15 14 11 6 1 2 1 0 1 1 1 2 2 1 2 3 3 3 3 4 4 4 4 2 1 2 1 1 1 1 0 1 0 0 1 2 1 2 1 3 4 3 4 4 4 5 5 6 6 7 7 7 7 8 8 8 7 7 6 6 5 4 4 4 5 6 6 5 5 5 6 5 4 5 5 6 6 7 8 8
3 2 2 4 8 13 16 14 9 3 1 1 0 0 1 1 1 1 1 1 1 2 3 2 2 3 4 4 4 3 3 1 0 1 1 1 1 1 2 0 0 2 2 1 1 2 4 4 3 3 3 3 4 5 5 6 7 7 8 8 8 8 8 8 8 7 7 6 5 4 5 6 5 5 5 5 4 5 5 4 5 6 7 7 8 11 12
4 4 7 10 12 12 9 6 3 1 0 1 1 1 1 1 1 1 0 1 2 2 2 3 3 3 2 2 3 2 2 2 1 1 2 1 1 1 1 1 1 2 1 1 0 3 3 3 4 3 3 3 4 5 6 6 6 7 8 9 8 8 8 8 7 8 8 6 4 5 6 5 5 6 7 5 3 4 5 5 6 8 9 10 12 14 14
5 6 8 8 7 4 3 2 1 0 1 1 1 1 2 1 1 1 1 2 2 1 1 2 2 1 1 1 1 0 1 1 1 1 1 1 1 1 2 2 1 1 0 0 2 4 3 3 4 3 3 4 4 5 5 5 6 6 7 8 8 9 9 8 6 7 9 8 7 8 8 7 8 10 11 7 6 6 6 7 8 9 10 11 12 12 12
3 3 3 2 2 1 2 2 1 1 1 1 1 1 1 2 2 2 2 2 2 1 1 2 1 1 1 2 1 1 1 1 1 1 1 1 1 2 1 1 1 1 1 3 4 4 3 3 3 3 4 3 3 3 4 4 5 5 6 6 7 8 8 7 7 7 7 8 9 9 9 9 10 11 9 8 8 7 6 8 10 11 11 11 12 12 12
3 2 1 2 2 1 1 1 1 0 0 1 1 2 2 2 2 2 3 2 1 1 2 2 3 3 2 2 1 1 1 2 2 1 1 1 2 2 1 1 1 1 3 4 3 3 3 2 1 2 3 3 3 3 4 4 4 5 5 5 6 7 7 6 6 5 4 5 7 7 7 7 8 8 7 8 9 8 7 7 10 11 11 11 12 13 13
1 1 1 2 2 1 0 1 1 1 1 2 2 3 3 3 2 3 3 2 3 3 3 3 4 4 2 2 1 0 1 1 2 1 1 2 2 1 1 0 1 2 3 3 3 3 3 0 1 2 3 3 4 4 4 4 5 5 5 5 6 6 6 6 6 5 4 5 7 6 5 6 7 7 7 8 8 8 6 6 7 8 8 8 9 10 11
1 1 1 1 1 1 1 0 1 2 3 3 3 3 4 3 2 3 4 3 3 4 4 3 3 3 2 2 2 1 2 1 2 1 1 2 1 2 2 2 3 2 3 3 3 2 2 1 0 2 3 3 4 5 5 5 5 4 4 4 4 5 5 5 5 5 5 6 6 4 5 6 7 7 7 7 7 7 7 7 6 7 7 6 6 8 9
1 0 1 0 1 1 1 2 3 2 2 3 3 4 3 1 2 4 4 3 3 5 5 4 3 2 2 2 2 1 2 2 2 1 1 1 1 1 2 3 3 2 3 3 3 3 2 2 1 2 3 3 4 4 4 4 3 3 3 4 4 4 4 4 5 5 6 6 5 4 5 6 6 7 7 6 6 9 10 9 7 8 8 8 8 10 10
1 0 0 0 1 2 3 3 3 4 4 4 5 4 2 3 4 4 4 3 4 5 3 2 2 2 1 2 2 2 2 1 1 1 2 2 2 1 1 3 3 3 3 2 2 2 2 2 1 3 3 3 3 3 2 1 1 2 2 3 3 4 3 3 4 6 7 8 7 7 8 8 7 7 7 6 7 10 11 9 8 9 9 9 9 10 10
1 0 1 1 2 3 4 4 5 5 6 6 6 5 5 5 4 4 4 4 4 4 3 2 2 1 1 1 2 2 2 1 1 2 2 2 1 1 2 3 2 2 1 2 2 3 2 1 2 2 2 2 2 2 2 2 2 3 3 3 3 5 5 6 6 7 8 9 9 9 10 10 9 9 8 8 7 8 8 7 7 8 8 8 8 9 9
1 1 1 2 1 2 3 3 3 3 4 5 5 5 4 4 4 5 5 4 4 4 3 2 1 2 2 2 2 1 1 1 2 3 2 2 2 2 3 3 1 1 2 2 2 2 3 2 3 3 2 3 3 3 3 3 4 4 6 6 6 7 8 9 9 8 7 8 8 9 10 10 9 9 10 10 8 6 5 6 6 7 8 8 8 7 7
1 1 2 2 1 1 2 2 2 3 4 4 4 4 3 3 4 6 6 5 4 3 3 2 2 3 3 1 1 1 1 2 3 3 3 2 2 2 3 3 2 2 3 2 2 2 2 2 2 2 1 2 3 2 3 4 4 4 6 8 9 9 9 9 10 10 9 8 7 8 10 11 10 8 9 9 7 4 4 7 8 8 9 9 9 8 8
Wind_Direction
337 338 339 340 343 344 344 347 348 353 358 356 349 344 318 136 287 282 301 311 249 244 301 241 209 226 239 250 259 262 263 264 272 270 257 250 244 240 244 248 249 252 253 256 252 242 250 251 232 223 209 201 197 191 196 203 196 180 195 211 196 173 179 196 227 273 273 264 253 225 198 179 173 189 173 160 175 169 157 174 185 189 213 131 83 76 261
336 337 339 340 342 343 343 346 348 353 360 355 345 343 305 290 276 283 313 325 191 176 246 234 220 244 250 250 249 245 250 255 256 259 254 247 249 249 250 252 252 257 263 264 263 253 251 258 255 246 215 217 219 200 194 199 194 182 193 193 181 184 184 173 186 247 268 280 271 237 213 189 185 189 170 176 181 159 139 126 141 190 215 155 123 171 244
335 336 339 340 341 343 343 345 347 351 356 354 346 328 278 307 257 252 309 317 206 188 244 246 243 257 257 257 256 253 253 245 239 246 251 248 250 255 256 260 267 277 289 294 287 270 254 261 273 258 211 224 248 218 202 204 198 196 195 178 169 188 180 160 177 205 218 219 219 218 208 202 224 190 176 192 195 176 160 122 143 204 217 139 137 182 245
333 335 338 340 341 343 343 345 347 348 353 353 343 290 266 335 302 281 311 324 328 287 309 341 343 327 322 301 280 273 275 268 249 243 246 244 244 253 258 264 282 289 291 290 282 282 299 301 304 288 243 201 252 208 185 210 220 220 202 177 152 161 178 170 181 197 203 201 216 222 184 181 208 204 186 196 201 181 146 112 156 191 172 171 198 178 175
332 335 337 338 341 342 343 345 346 347 352 352 339 258 222 328 305 338 340 323 334 344 1 24 15 327 318 317 293 293 292 289 280 263 258 252 243 245 245 239 256 273 280 284 280 342 335 315 323 324 302 278 267 238 128 98 344 294 216 186 152 134 188 190 186 200 210 208 218 222 192 192 197 197 200 206 198 163 138 153 188 164 142 207 239 179 161
330 334 335 337 340 342 344 345 346 349 352 352 343 216 222 281 288 7 14 327 332 343 331 340 331 308 306 292 277 293 293 285 278 268 271 272 258 246 239 225 225 242 262 275 279 346 347 324 341 347 335 326 319 322 341 89 38 10 293 201 168 150 194 198 186 202 215 217 221 208 192 203 201 197 205 212 207 177 167 186 174 152 163 206 207 182 173
328 331 333 335 338 341 343 345 348 351 353 357 13 236 306 319 307 352 14 335 299 296 295 300 301 299 305 291 273 290 296 292 288 274 276 285 272 241 226 251 261 282 286 279 269 2 345 294 318 351 352 342 337 338 331 334 41 28 7 285 201 180 209 196 183 200 214 216 221 202 179 193 199 200 199 197 210 200 191 199 175 167 188 192 178 184 188
323 327 331 333 336 340 342 345 349 353 357 6 34 10 1 10 310 332 347 311 282 278 284 291 296 296 294 277 277 296 300 305 315 309 291 304 308 315 337 338 357 348 321 301 237 199 240 243 261 294 19 355 329 314 314 329 356 6 1 313 290 238 236 200 174 191 216 214 213 198 177 179 186 193 184 166 196 231 212 201 176 173 204 187 171 182 205
317 323 327 329 334 338 341 346 351 356 2 8 13 2 3 332 299 314 316 289 292 288 288 301 295 285 292 294 305 311 305 306 317 302 247 236 339 342 334 337 358 1 358 27 80 285 287 274 272 267 241 244 253 261 278 307 337 336 326 322 317 267 248 219 153 159 213 205 175 167 171 173 179 200 201 162 147 198 215 158 156 169 162 139 160 182 213
314 318 323 326 330 336 341 345 350 356 5 9 359 332 346 333 316 329 321 273 301 310 307 310 287 275 337 329 316 310 302 300 311 319 292 297 350 335 314 324 15 32 27 21 335 304 295 280 276 265 240 241 239 240 260 266 278 292 303 306 286 193 174 218 157 152 223 211 144 133 121 113 171 237 234 157 123 115 99 74 50 188 144 133 169 203 213
311 314 319 323 325 331 337 342 347 354 0 4 354 319 329 332 323 333 326 271 296 321 318 312 308 332 334 324 314 305 305 316 339 359 325 308 333 339 322 334 60 99 14 344 306 282 272 264 265 258 240 260 279 268 274 283 259 245 234 272 297 359 108 202 174 145 221 234 128 106 91 105 202 244 233 118 112 105 98 94 53 336 150 143 164 174 142
309 310 315 318 319 326 333 336 342 348 350 351 342 319 318 322 309 302 309 284 295 317 311 300 302 310 312 311 307 303 313 328 333 347 345 318 337 353 346 359 35 10 333 324 302 290 298 284 285 311 315 317 318 307 304 313 298 276 260 215 287 346 42 359 58 118 175 195 96 118 191 207 232 243 179 118 113 106 101 91 53 45 82 110 119 135 136
306 308 310 313 314 320 327 330 336 341 342 341 336 324 322 322 304 261 264 281 277 286 303 299 297 298 305 310 307 305 320 329 324 352 16 353 356 3 356 0 2 322 310 309 307 325 346 323 330 329 320 335 341 324 303 291 286 294 298 259 183 56 45 44 27 80 140 99 89 154 216 256 289 281 120 104 95 89 82 54 15 6 26 91 106 116 127
302 304 306 308 309 314 322 326 331 336 338 337 332 326 322 315 292 264 289 278 262 277 290 290 299 309 314 317 314 313 328 338 341 3 17 360 356 351 340 341 333 313 299 297 319 12 44 348 7 348 329 356 4 328 294 275 253 261 281 274 155 131 105 78 43 38 129 115 96 160 264 345 341 334 343 40 120 123 108 82 6 343 350 31 101 102 102
296 297 300 303 306 310 316 321 325 331 335 334 329 325 323 315 292 269 263 284 296 287 241 216 318 327 319 315 319 322 332 347 348 343 338 357 358 338 331 339 332 320 318 327 358 38 70 80 65 2 334 10 13 294 288 286 265 250 270 282 183 125 144 139 116 35 83 91 66 32 51 43 293 287 302 306 156 140 123 93 356 330 343 348 121 127 122
292 294 297 300 303 307 313 317 319 325 331 333 330 325 324 326 310 275 257 261 295 277 245 277 324 323 308 303 316 323 331 346 341 328 331 358 353 336 331 336 332 332 348 12 22 24 44 95 143 193 210 188 189 264 283 302 323 317 328 3 29 32 46 110 107 70 53 92 96 115 112 132 254 284 317 324 318 126 102 75 350 310 332 335 166 141 133
294 294 295 297 299 303 310 312 313 322 329 334 332 323 318 325 328 302 278 242 264 270 275 293 311 317 305 309 320 327 337 338 337 345 341 336 338 336 334 335 338 351 7 17 10 7 26 76 59 267 233 224 160 174 274 313 343 327 341 19 32 21 18 61 89 84 61 87 111 164 120 119 285 313 323 310 312 72 77 79 271 290 322 338 76 124 118
296 295 294 295 297 300 305 307 309 319 326 330 329 319 312 320 328 312 289 257 278 265 262 291 314 298 271 287 306 318 331 326 325 339 305 301 331 338 331 327 334 352 2 14 24 8 347 265 170 165 245 277 218 171 220 298 20 318 327 32 33 10 19 53 99 98 62 80 109 92 45 278 312 332 322 309 352 62 79 162 227 282 343 16 66 88 87
295 295 294 296 298 298 298 301 306 315 322 329 331 319 311 320 332 317 294 256 256 263 282 306 306 274 264 279 293 304 319 315 314 355 359 331 312 308 310 305 314 341 351 5 20 10 344 307 292 188 226 293 297 148 136 135 176 264 317 63 47 17 24 28 75 94 65 104 112 61 219 265 326 333 324 335 42 83 135 195 214 225 52 55 64 76 81
289 291 291 294 297 297 297 297 302 311 318 326 331 319 311 318 346 334 309 284 280 285 284 282 264 252 266 286 281 288 309 309 309 51 75 276 289 328 344 344 337 339 348 3 10 8 360 319 310 321 303 289 291 108 120 142 168 198 114 57 359 176 52 12 71 131 84 82 73 68 204 287 334 343 343 16 49 170 184 161 156 102 79 71 63 66 77
285 286 288 292 294 295 298 297 298 308 315 323 329 320 310 309 323 327 316 302 283 271 279 282 273 269 275 274 265 264 267 264 270 290 241 258 281 25 72 314 309 327 334 350 351 344 353 308 298 324 323 297 324 122 181 161 106 120 134 122 80 17 70 144 231 195 88 94 94 138 225 297 351 25 53 31 16 267 146 87 86 87 82 82 74 63 75
284 285 286 289 290 294 296 294 296 304 309 317 324 319 307 303 310 326 326 304 258 238 267 283 288 285 280 275 268 260 252 250 257 262 257 280 297 272 140 183 241 247 269 351 358 312 344 330 299 311 298 283 339 327 208 162 142 303 47 96 102 236 195 161 126 73 112 131 170 215 246 336 29 53 58 41 36 34 29 35 43 34 24 46 70 52 32
285 285 285 285 288 293 294 291 295 299 302 313 319 313 304 303 311 329 331 307 259 254 268 274 280 282 276 278 283 274 255 247 252 255 245 191 313 297 185 174 232 254 276 66 130 240 298 279 257 280 276 266 302 316 307 90 134 216 24 62 168 223 204 149 116 115 103 91 92 256 337 25 47 59 60 53 48 39 32 34 30 10 358 11 55 58 33
285 285 285 284 285 289 293 293 294 295 299 308 310 307 303 301 307 327 331 308 268 294 287 275 273 267 269 301 315 302 254 235 242 245 230 187 153 313 260 215 224 300 295 265 213 205 269 258 251 291 290 293 329 20 68 42 58 132 83 24 335 284 280 102 110 125 115 89 343 351 33 30 38 54 59 59 55 49 46 45 31 9 4 3 15 58 80
282 283 284 284 285 288 293 296 294 294 300 306 305 306 305 298 302 322 323 303 286 307 312 301 274 277 307 323 322 309 256 242 242 227 209 194 178 176 218 244 249 248 252 259 266 77 287 262 278 349 294 300 339 355 76 143 188 139 109 113 234 264 41 99 106 99 109 156 234 239 83 74 56 59 60 60 60 54 47 47 42 24 9 351 341 15 81
279 282 282 282 285 288 291 295 297 297 301 304 302 302 300 296 297 301 294 284 274 252 265 279 277 302 333 333 314 307 307 283 250 222 216 220 210 206 222 261 277 275 275 273 248 192 200 230 203 169 257 280 331 332 307 263 261 100 109 186 195 133 62 116 124 101 87 121 215 184 96 60 33 58 88 97 88 75 58 48 42 30 12 350 341 354 33
276 278 280 282 284 287 290 296 302 302 302 302 300 300 299 296 295 290 271 267 276 277 274 263 282 314 326 314 300 305 311 277 238 231 238 235 218 215 223 235 263 295 335 337 284 215 118 300 251 210 219 242 293 306 311 319 319 8 61 307 108 99 96 111 110 114 147 185 187 155 117 85 325 21 85 102 109 105 96 80 65 55 23 333 325 343 10
272 274 280 282 283 287 291 296 303 305 304 304 305 306 301 290 282 276 268 265 257 248 276 278 286 306 311 301 299 310 308 272 237 225 235 246 236 226 222 204 190 252 325 327 315 350 48 310 271 253 251 268 341 327 43 53 338 341 353 327 337 122 154 157 124 132 185 166 137 129 119 135 208 352 41 38 71 88 90 89 92 107 172 252 315 355 1
271 274 278 280 283 287 290 297 308 308 305 312 318 318 310 295 238 177 265 297 280 248 265 297 283 284 300 300 302 307 297 252 218 211 227 250 250 234 218 196 184 197 215 231 329 320 269 246 245 265 281 151 137 281 340 81 68 336 326 327 3 77 90 103 117 116 91 90 116 118 97 99 115 97 76 68 76 78 73 68 67 49 351 358 11 8 352
271 274 276 280 285 287 290 299 309 308 310 323 332 325 314 44 114 145 108 13 1 343 249 305 290 282 299 293 287 291 274 214 202 211 222 232 248 245 213 195 195 195 185 71 185 228 264 283 273 270 291 342 124 140 348 92 114 345 329 355 56 75 67 57 80 93 89 90 94 87 86 93 110 105 81 59 61 75 70 57 26 360 10 22 17 6 359
267 273 278 282 284 288 293 299 302 302 307 322 339 321 238 99 164 179 170 355 351 351 153 256 271 286 295 261 244 265 250 204 195 210 211 209 237 244 216 202 204 179 158 165 225 225 240 268 273 285 311 334 71 110 84 81 94 74 4 35 65 76 72 57 53 64 82 93 85 75 70 61 58 63 48 29 30 46 55 47 24 19 31 37 33 30 24
268 273 279 285 287 290 292 293 293 293 294 294 282 265 262 266 258 246 299 324 327 333 95 282 280 285 289 265 269 277 238 192 185 209 212 201 219 231 221 217 210 189 180 171 187 275 236 220 247 287 297 312 57 75 69 77 106 151 162 93 73 70 69 63 56 54 58 69 76 71 55 35 35 48 43 30 31 36 36 31 28 35 42 40 33 30 23
268 275 281 286 289 292 294 296 296 293 291 291 282 269 263 268 276 280 288 297 298 268 208 267 293 277 267 278 295 291 241 179 177 198 211 204 196 193 212 212 182 197 224 198 192 249 246 206 239 288 284 297 79 80 66 49 88 112 95 73 70 75 73 67 62 59 54 52 64 77 80 62 48 50 46 38 34 33 33 31 26 29 32 29 20 14 8
268 279 286 288 292 297 301 305 305 299 294 288 280 276 274 276 277 260 249 257 265 256 248 248 267 273 283 307 298 287 272 133 154 177 220 233 185 160 187 203 132 128 236 200 191 271 290 243 201 249 291 344 69 85 41 28 62 75 73 62 64 75 73 64 57 57 59 61 66 76 88 81 55 39 32 28 20 16 21 27 28 26 23 17 9 3 1
277 288 292 297 302 302 301 297 289 286 287 273 269 278 298 296 275 238 221 217 192 198 266 237 221 270 304 330 307 306 352 24 184 194 215 222 176 168 176 107 66 256 221 181 151 247 262 233 153 155 290 339 58 70 75 84 84 83 78 65 55 62 68 66 62 60 59 64 65 58 51 50 43 31 23 18 11 8 11 13 15 19 15 4 354 355 2
289 296 301 308 309 305 300 286 251 231 243 266 269 282 310 305 298 279 239 230 218 218 263 287 263 257 278 302 292 315 347 339 231 194 179 171 179 189 153 114 136 240 205 118 89 230 244 233 103 81 344 14 64 85 116 107 93 84 80 73 64 68 80 85 84 74 60 55 55 53 49 50 47 34 22 15 7 9 12 6 3 6 3 353 351 356 357
293 307 315 317 313 303 289 251 211 231 283 292 290 289 290 293 293 256 223 230 222 215 228 309 275 248 250 278 274 294 327 315 283 133 113 158 190 187 147 132 213 235 130 45 250 221 240 359 71 70 43 45 72 85 92 91 85 81 82 78 69 73 77 75 75 73 59 44 37 34 37 41 38 26 16 9 359 360 6 3 357 358 354 345 343 341 334
306 320 320 315 314 315 262 236 302 318 311 300 291 288 282 269 193 185 212 205 196 199 194 225 254 249 253 268 265 268 287 299 341 35 40 346 287 355 87 112 189 193 108 278 245 214 44 35 61 70 55 40 47 51 55 67 77 80 79 77 73 70 65 56 59 65 61 44 27 19 17 17 12 4 360 354 345 342 346 345 343 352 353 343 335 337 342
332 329 315 293 260 266 291 305 317 322 317 296 259 258 251 166 147 229 222 179 179 200 194 207 233 230 216 239 270 292 309 12 32 24 3 340 359 24 32 5 277 56 65 335 280 12 58 60 67 66 47 27 26 30 35 50 64 64 58 61 63 59 55 55 57 64 75 75 50 21 7 355 342 333 330 329 323 320 324 333 346 357 358 351 351 357 356
335 314 298 267 262 294 305 311 315 319 317 284 188 189 228 170 170 194 196 197 223 213 191 203 230 225 203 210 255 298 329 48 76 61 12 322 297 88 89 231 246 71 66 334 285 21 75 80 69 59 50 29 19 24 33 45 55 54 49 51 51 47 49 52 50 52 61 54 26 12 7 349 333 326 327 328 326 323 324 337 356 2 0 358 359 357 349
330 316 304 301 303 305 311 316 318 309 284 264 203 200 236 240 238 224 198 225 256 227 193 191 244 257 228 200 210 256 305 341 142 140 95 341 312 56 69 289 267 75 69 274 276 62 75 79 71 65 58 33 22 28 36 42 47 48 47 47 45 41 41 40 33 26 26 20 3 356 357 355 352 347 337 337 349 348 339 341 352 353 353 356 353 346 342
322 324 317 307 304 305 311 318 317 273 273 23 11 311 256 238 258 288 191 210 241 237 202 186 207 242 243 172 167 213 292 321 331 72 58 346 306 66 74 326 7 73 103 244 33 65 68 75 80 81 78 55 38 33 32 33 36 39 41 40 37 32 28 26 17 5 3 4 357 344 342 352 3 348 332 334 8 14 354 347 348 347 350 353 350 345 342
310 320 318 309 303 312 328 317 295 334 47 53 35 346 328 314 295 279 254 255 268 265 221 217 222 268 356 16 36 332 316 327 32 61 55 324 308 34 51 25 28 73 221 323 58 67 70 75 82 93 93 72 52 41 37 31 28 32 35 34 30 26 22 19 11 357 355 2 8 2 354 352 347 337 335 348 10 7 358 0 1 356 353 352 348 343 342
333 334 326 304 301 2 2 321 305 30 34 23 100 83 336 322 320 313 292 284 293 307 298 289 319 60 21 339 2 32 350 340 26 43 21 347 2 29 38 4 283 281 38 57 69 80 83 77 76 84 86 74 55 49 49 42 36 37 33 27 26 26 22 16 11 5 2 7 9 5 1 355 346 340 350 15 21 12 7 8 4 359 357 352 345 341 343
3 13 32 2 340 359 48 349 327 341 271 251 202 195 234 277 298 284 270 267 278 322 347 10 59 77 33 345 18 67 342 343 31 33 351 19 31 14 350 250 264 355 62 73 74 77 76 56 19 51 73 72 53 47 49 49 51 50 41 28 24 24 22 16 12 10 4 358 352 348 351 355 350 346 356 15 23 29 31 17 3 357 354 350 346 345 346
357 329 48 40 342 316 71 25 353 354 258 242 221 211 224 237 248 261 280 331 10 6 357 20 56 70 45 360 8 357 319 18 43 5 356 62 60 340 312 37 29 37 64 76 67 71 90 116 333 30 52 52 47 44 40 38 42 45 42 32 17 10 14 19 13 3 353 349 347 346 352 3 4 359 359 9 23 37 38 20 3 354 345 340 344 350 354
359 323 45 58 329 314 345 262 243 240 250 258 256 246 242 245 278 314 314 331 3 6 360 11 39 57 55 40 34 335 321 32 57 359 359 76 82 311 341 45 44 35 65 83 82 97 147 204 341 43 47 45 52 49 34 26 29 33 35 28 10 2 13 21 13 1 358 359 360 3 7 10 10 6 1 2 11 15 11 4 360 356 347 341 349 360 5
30 344 45 97 263 293 307 297 291 291 285 287 295 290 261 178 58 1 319 306 357 17 16 21 32 20 1 21 48 359 330 16 40 332 330 69 76 350 13 47 47 32 52 82 101 118 156 198 152 79 63 55 64 63 42 22 15 12 19 18 2 355 7 15 8 3 2 2 5 8 5 6 9 6 359 353 350 352 353 354 358 1 359 356 358 1 1
59 7 11 188 276 289 298 318 341 347 343 343 343 341 360 63 48 3 336 342 4 4 1 47 77 58 330 341 34 29 341 359 44 347 357 43 65 45 44 61 60 48 52 76 109 122 155 196 139 81 64 60 75 78 55 359 341 351 6 10 359 355 360 1 358 358 357 355 356 357 358 359 1 1 358 352 346 349 354 360 2 2 1 357 352 350 348
40 61 264 297 328 326 329 354 10 359 348 351 354 353 5 23 12 349 348 5 1 352 356 28 54 53 337 2 38 24 313 286 104 77 41 31 52 84 73 66 59 61 84 114 137 143 152 147 94 71 37 20 48 50 8 344 348 342 334 340 357 1 354 346 343 348 352 350 349 349 349 351 352 352 349 343 341 350 1 5 359 355 355 355 351 347 344
359 358 276 282 328 352 343 349 348 326 326 336 333 327 347 8 346 323 335 1 12 10 10 9 15 36 34 32 39 11 285 329 63 65 51 13 14 59 82 90 98 114 115 119 136 143 136 108 89 80 38 8 19 25 5 355 353 345 340 340 342 346 347 344 337 334 336 341 343 341 336 333 335 341 341 336 336 347 355 348 342 343 344 343 345 345 341
334 319 300 293 310 34 3 350 319 295 307 315 303 303 334 352 323 317 342 11 22 12 360 356 32 58 48 18 318 319 16 43 49 45 36 24 26 56 100 116 111 104 102 80 41 45 68 73 85 100 64 3 4 12 3 351 344 342 344 340 334 332 333 329 322 317 316 318 320 322 322 322 326 333 336 332 333 336 329 323 327 334 333 330 331 334 332